1497978000.92,15955,26.25,74406.0,13.09,-22.57,-22.53,0,*4F
1497978002.12,15956,26.31,74406.3,13.07,-22.63,-22.63,0,*46
1497978003.33,15957,26.31,74406.0,13.07,-22.63,-22.63,0,*47
1497978004.58,15958,26.31,74406.0,13.09,-22.73,-22.83,0,*49
1497978005.86,15959,26.31,74404.0,13.05,-22.73,-22.77,0,*4F
1497978007.12,15960,26.25,74402.3,13.05,-22.63,-22.73,0,*40
1497978008.33,15961,26.31,74406.0,13.03,-22.93,-22.93,0,*46
1497978009.59,15962,26.31,74404.3,13.05,-22.87,-23.03,0,*4E
1497978010.83,15963,26.31,74404.8,13.05,-23.09,-23.09,0,*42
1497978012.08,15964,26.31,74402.5,13.03,-23.33,-23.33,0,*43
1497978013.32,15965,26.31,74404.5,13.03,-23.43,-23.49,0,*48
1497978014.53,15966,26.25,74404.5,13.03,-23.09,-23.13,0,*4A
1497978015.78,15967,26.31,74406.8,13.01,-22.73,-22.67,0,*47
1497978017.01,15968,26.25,74406.0,13.01,-22.83,-22.87,0,*49
1497978018.25,15969,26.25,74402.3,13.01,-22.83,-22.87,0,*48
1497978019.5,15970,26.31,74402.5,12.99,-22.73,-22.73,0,*44
1497978020.78,15971,26.31,74406.0,13.01,-22.73,-22.73,0,*45
1497978022.01,15972,26.31,74404.5,13.01,-22.67,-22.57,0,*45
1497978023.22,15973,26.25,74400.5,12.99,-22.57,-22.57,0,*47
1497978024.44,15974,26.31,74404.8,12.99,-22.53,-22.57,0,*44
1497978025.73,15975,26.25,74402.8,13.01,-22.21,-22.31,0,*40
1497978026.94,15976,26.25,74400.5,12.99,-22.57,-22.57,0,*42
1497978028.17,15977,26.25,74402.5,12.99,-22.87,-23.03,0,*4E
1497978029.46,15978,26.31,74406.0,13.01,-23.03,-23.03,0,*4C
1497978030.72,15979,26.31,74406.8,12.99,-23.19,-23.19,0,*4D
1497978031.99,15980,26.31,74404.8,12.97,-23.09,-23.19,0,*44
1497978033.21,15981,26.31,74402.5,12.97,-23.39,-23.59,0,*42
1497978034.5,15982,26.25,74400.8,12.97,-23.23,-23.23,0,*47
1497978035.76,15983,26.31,74400.5,12.97,-23.03,-23.09,0,*4C
1497978036.99,15984,26.31,74402.5,12.95,-22.87,-22.77,0,*4C
1497978038.2,15985,26.31,74404.0,12.95,-22.57,-22.63,0,*45
1497978039.49,15986,26.31,74400.0,12.97,-22.77,-22.73,0,*47
1497978040.74,15987,26.31,74404.0,12.97,-22.73,-22.87,0,*49
1497978041.99,15988,26.31,74402.5,12.97,-22.63,-22.73,0,*4C
1497978043.25,15989,26.31,74406.3,12.97,-22.63,-22.73,0,*4D
1497978044.51,15990,26.31,74402.0,12.95,-22.77,-22.77,0,*46
1497978045.74,15991,26.31,74400.5,12.95,-22.47,-22.57,0,*46
1497978047.03,15992,26.31,74400.3,12.97,-22.47,-22.47,0,*46
1497978048.25,15993,26.31,74406.3,12.95,-22.57,-22.63,0,*42
1497978049.45,15994,26.25,74402.8,12.95,-22.87,-22.93,0,*47
1497978050.65,15995,26.31,74404.3,12.95,-22.63,-22.63,0,*43
1497978051.85,15996,26.31,74404.5,12.95,-22.63,-22.63,0,*40
1497978053.08,15997,26.31,74402.0,12.91,-22.67,-22.67,0,*45
1497978054.33,15998,26.31,74402.5,12.91,-22.41,-22.47,0,*4C
1497978055.58,15999,26.31,74400.3,12.91,-22.31,-22.41,0,*4C
1497978056.81,16000,26.31,74402.5,12.91,-22.63,-22.63,0,*41
1497978058.09,16001,26.31,74404.0,12.91,-22.77,-22.77,0,*40
1497978059.31,16002,26.25,74400.0,12.91,-22.63,-22.53,0,*40
1497978060.54,16003,26.31,74402.0,12.91,-22.27,-22.27,0,*42
1497978061.76,16004,26.31,74406.3,12.95,-22.11,-22.21,0,*42
1497978062.99,16005,26.31,74406.3,12.95,-22.21,-22.37,0,*47
1497978064.19,16006,26.31,74402.0,12.95,-22.63,-22.63,0,*43
1497978065.43,16007,26.31,74404.3,12.91,-22.53,-22.53,0,*46
1497978066.65,16008,26.31,74400.3,12.91,-22.41,-22.41,0,*49
1497978067.9,16009,26.31,74402.3,12.91,-22.47,-22.53,0,*4D
1497978069.13,16010,26.31,74402.3,12.89,-22.67,-22.73,0,*4C
1497978070.34,16011,26.31,74404.0,12.89,-22.57,-22.57,0,*48
1497978071.55,16012,26.31,74400.5,12.89,-22.53,-22.57,0,*4F
1497978072.76,16013,26.31,74402.8,12.89,-22.57,-22.57,0,*4A
1497978073.97,16014,26.31,74400.5,12.89,-22.67,-22.63,0,*49
1497978075.19,16015,26.25,74398.3,12.91,-22.67,-22.67,0,*45
1497978076.45,16016,26.31,74400.3,12.89,-23.53,-23.53,0,*4F
1497978077.68,16017,26.31,74402.5,12.89,-22.97,-23.03,0,*42
1497978078.89,16018,26.25,74398.0,12.89,-22.67,-22.67,0,*41
1497978080.12,16019,26.31,74398.8,12.89,-22.73,-22.97,0,*4A
1497978081.36,16020,26.31,74402.3,12.89,-22.97,-23.03,0,*46
1497978082.58,16021,26.31,74400.5,12.89,-22.83,-22.73,0,*44
1497978083.83,16022,26.31,74400.8,12.85,-23.23,-23.33,0,*45
1497978085.06,16023,26.31,74396.0,12.87,-22.83,-22.87,0,*43
1497978086.28,16024,26.31,74398.8,12.87,-22.83,-22.83,0,*40
1497978087.5,16025,26.31,74400.8,12.87,-22.67,-22.57,0,*42
1497978088.75,16026,26.31,74400.8,12.85,-22.73,-22.73,0,*40
1497978089.99,16027,26.31,74400.3,12.85,-22.73,-22.73,0,*41
1497978091.19,16028,26.31,74398.5,12.85,-22.63,-22.63,0,*4E
1497978092.4,16029,26.31,74402.8,12.85,-22.57,-22.63,0,*48
1497978093.66,16030,26.31,74400.5,12.83,-22.41,-22.47,0,*47
1497978094.9,16031,26.31,74400.5,12.83,-22.31,-22.41,0,*47
1497978096.1,16032,26.31,74398.8,12.85,-22.27,-22.41,0,*45
1497978097.33,16033,26.31,74396.5,12.85,-23.03,-23.09,0,*4E
1497978098.58,16034,26.31,74398.0,12.85,-22.77,-22.77,0,*43
1497978099.83,16035,26.31,74400.3,12.87,-23.03,-23.13,0,*41
1497978101.09,16036,26.31,74402.5,12.83,-23.29,-23.43,0,*4B
1497978102.37,16037,26.31,74402.8,12.83,-22.77,-22.77,0,*46
1497978103.6,16038,26.31,74400.8,12.83,-22.63,-22.67,0,*4D
1497978104.8,16039,26.31,74398.8,12.81,-22.67,-22.83,0,*40
1497978106.0,16040,26.31,74396.3,12.81,-22.67,-22.83,0,*4E
1497978107.23,16041,26.31,74396.5,12.81,-22.73,-22.83,0,*4A
1497978108.45,16042,26.31,74396.5,12.81,-22.83,-22.73,0,*49
1497978109.68,16043,26.31,74400.0,12.81,-22.73,-22.83,0,*48
1497978110.88,16044,26.31,74400.0,12.81,-22.83,-22.97,0,*45
1497978112.14,16045,26.31,74398.5,12.81,-23.03,-23.03,0,*41
1497978113.39,16046,26.31,74398.3,12.79,-22.97,-23.03,0,*49
1497978114.62,16047,26.31,74402.3,12.79,-22.97,-23.13,0,*49
1497978115.88,16048,26.31,74400.5,12.79,-23.03,-23.13,0,*4A
1497978117.1,16049,26.31,74404.0,12.79,-22.87,-22.87,0,*4A
1497978118.32,16050,26.31,74402.0,12.79,-22.87,-23.13,0,*4E
1497978119.56,16051,26.31,74400.0,12.77,-22.93,-23.19,0,*4E
1497978120.79,16052,26.31,74400.3,12.77,-23.09,-23.19,0,*4F
1497978122.0,16053,26.31,74400.8,12.77,-22.93,-23.09,0,*4D
1497978123.22,16054,26.31,74400.0,12.79,-22.63,-22.83,0,*48
1497978124.46,16055,26.31,74400.3,12.77,-22.53,-22.77,0,*4F
1497978125.69,16056,26.31,74406.3,12.77,-22.57,-22.77,0,*48
1497978126.95,16057,26.31,74402.5,12.73,-22.47,-22.77,0,*4C
1497978128.21,16058,26.31,74400.5,12.75,-22.57,-22.77,0,*44
1497978129.44,16059,26.31,74404.5,12.75,-22.87,-23.09,0,*40
1497978130.67,16060,26.31,74400.5,12.75,-22.93,-23.09,0,*4F
1497978131.88,16061,26.31,74402.0,12.73,-23.09,-23.39,0,*49
1497978133.14,16062,26.31,74402.0,12.75,-23.09,-23.33,0,*46
1497978134.38,16063,26.31,74402.3,12.73,-22.77,-22.97,0,*46
1497978135.6,16064,26.31,74406.5,12.75,-22.87,-23.09,0,*4E
1497978136.81,16065,26.31,74400.0,12.73,-23.09,-23.39,0,*4D
1497978138.06,16066,26.31,74400.5,12.73,-23.23,-23.53,0,*4A
1497978139.34,16067,26.31,74402.3,12.75,-23.03,-23.23,0,*48
1497978140.55,16068,26.31,74402.0,12.73,-22.83,-22.97,0,*46
1497978141.76,16069,26.31,74402.0,12.73,-22.63,-22.93,0,*4D
1497978143.0,16070,26.31,74400.0,12.73,-22.57,-22.77,0,*48
1497978144.2,16071,26.31,74402.3,12.69,-22.53,-22.83,0,*4D
1497978145.46,16072,26.31,74398.3,12.67,-22.83,-23.03,0,*44
1497978146.66,16073,26.31,74400.5,12.69,-22.87,-23.13,0,*4E
1497978147.86,16074,26.31,74400.5,12.69,-22.63,-22.87,0,*4F
1497978149.07,16075,26.31,74400.3,12.69,-22.83,-23.13,0,*4C
1497978150.32,16076,26.31,74400.8,12.69,-23.03,-23.19,0,*4C
1497978151.53,16077,26.31,74396.3,12.69,-23.13,-23.43,0,*43
1497978152.79,16078,26.31,74400.5,12.67,-23.13,-23.33,0,*45
1497978154.05,16079,26.31,74398.5,12.69,-22.77,-23.03,0,*4A
1497978155.31,16080,26.31,74400.8,12.67,-22.53,-22.77,0,*46
1497978156.55,16081,26.31,74400.5,12.67,-22.67,-22.97,0,*4E
1497978157.78,16082,26.31,74400.0,12.67,-22.63,-22.87,0,*48
1497978159.04,16083,26.31,74400.0,12.67,-22.47,-22.67,0,*41
1497978160.3,16084,26.31,74400.3,12.67,-22.31,-22.67,0,*47
1497978161.53,16085,26.31,74396.0,12.67,-22.63,-22.83,0,*4B
1497978162.76,16086,26.31,74400.8,12.67,-22.63,-22.87,0,*4C
1497978163.96,16087,26.31,74400.8,12.69,-22.63,-22.87,0,*43
1497978165.22,16088,26.31,74398.8,12.67,-22.83,-23.03,0,*41
1497978166.45,16089,26.31,74396.5,12.67,-22.37,-22.63,0,*48
1497978167.72,16090,26.31,74400.5,12.67,-22.47,-22.63,0,*47
1497978168.98,16091,26.31,74400.0,12.67,-22.31,-22.63,0,*47
1497978170.21,16092,26.31,74402.5,12.67,-22.67,-22.87,0,*4D
1497978171.45,16093,26.31,74398.8,12.67,-22.67,-22.97,0,*4D
1497978172.68,16094,26.31,74398.5,12.67,-22.63,-22.97,0,*4E
1497978173.91,16095,26.31,74400.5,12.67,-22.63,-22.97,0,*4F
1497978175.15,16096,26.31,74398.3,12.67,-22.67,-22.97,0,*48
1497978176.38,16097,26.31,74400.8,12.67,-22.63,-22.87,0,*4C
1497978177.64,16098,26.31,74400.0,12.67,-22.37,-22.77,0,*4D
1497978178.84,16099,26.31,74400.5,12.65,-22.41,-22.83,0,*44
1497978180.05,16100,26.31,74400.5,12.65,-22.41,-22.87,0,*41
1497978181.29,16101,26.31,74396.0,12.67,-22.37,-22.67,0,*4D
1497978182.5,16102,26.31,74398.8,12.65,-22.57,-22.87,0,*44
1497978183.73,16103,26.31,74398.5,12.67,-22.63,-22.97,0,*41
1497978184.97,16104,26.31,74400.8,12.67,-22.67,-22.97,0,*42
1497978186.2,16105,26.31,74396.5,12.67,-22.67,-22.97,0,*43
1497978187.46,16106,26.31,74396.5,12.63,-22.73,-22.97,0,*41
1497978188.67,16107,26.31,74398.0,12.65,-22.67,-22.93,0,*47
1497978189.88,16108,26.31,74396.3,12.65,-22.57,-22.87,0,*4E
1497978191.12,16109,26.31,74400.3,12.65,-22.73,-22.93,0,*4C
1497978192.33,16110,26.31,74400.5,12.65,-22.67,-22.87,0,*44
1497978193.54,16111,26.31,74396.8,12.65,-22.67,-22.93,0,*40
1497978194.75,16112,26.31,74398.3,12.65,-22.53,-22.83,0,*45
1497978195.98,16113,26.31,74396.3,12.63,-22.63,-22.87,0,*45
1497978197.23,16114,26.31,74400.8,12.63,-22.73,-22.87,0,*43
1497978198.49,16115,26.31,74396.0,12.63,-22.73,-22.93,0,*47
1497978199.7,16116,26.31,74398.8,12.65,-22.41,-22.57,0,*4B
1497978200.93,16117,26.31,74396.0,12.65,-22.41,-22.73,0,*4C
1497978202.15,16118,26.31,74396.8,12.63,-22.63,-22.87,0,*4E
1497978203.42,16119,26.31,74398.3,12.63,-22.77,-22.97,0,*4B
1497978204.65,16120,26.31,74400.0,12.65,-22.73,-22.93,0,*47
1497978205.88,16121,26.31,74402.0,12.65,-22.87,-23.03,0,*45
1497978207.12,16122,26.31,74398.0,12.63,-22.93,-23.09,0,*4F
1497978208.39,16123,26.31,74398.5,12.65,-23.19,-23.19,0,*4A
1497978209.62,16124,26.31,74400.0,12.63,-22.93,-23.13,0,*42
1497978210.86,16125,26.31,74396.8,12.63,-22.93,-23.09,0,*48
1497978212.09,16126,26.31,74402.8,12.63,-22.93,-23.09,0,*4B
1497978213.36,16127,26.31,74400.0,12.63,-23.09,-23.23,0,*40
1497978214.59,16128,26.38,74400.5,12.63,-22.87,-23.09,0,*40
1497978215.8,16129,26.31,74402.0,12.65,-22.67,-22.87,0,*4E
1497978217.06,16130,26.31,74396.5,12.63,-22.77,-22.93,0,*44
1497978218.3,16131,26.31,74396.0,12.63,-22.93,-23.09,0,*4D
1497978219.56,16132,26.31,74400.0,12.63,-23.13,-23.23,0,*4F
1497978220.78,16133,26.31,74402.0,12.61,-23.23,-23.39,0,*44
1497978221.99,16134,26.31,74398.5,12.61,-23.39,-23.43,0,*45
1497978223.19,16135,26.31,74402.3,12.61,-23.39,-23.59,0,*4F
1497978224.44,16136,26.31,74402.0,12.63,-23.29,-23.39,0,*49
1497978225.67,16137,26.31,74398.3,12.63,-23.13,-23.39,0,*41
1497978226.92,16138,26.31,74402.0,12.61,-23.53,-23.69,0,*4D
1497978228.13,16139,26.31,74400.5,12.59,-23.43,-23.59,0,*45
1497978229.36,16140,26.31,74400.8,12.61,-23.59,-23.69,0,*48
1497978230.56,16141,26.31,74400.0,12.59,-23.43,-23.59,0,*4A
1497978231.79,16142,26.31,74398.5,12.59,-23.65,-23.75,0,*43
1497978232.99,16143,26.31,74398.8,12.59,-23.75,-23.79,0,*4F
1497978234.22,16144,26.31,74392.3,12.59,-23.49,-23.59,0,*45
1497978235.45,16145,26.31,74398.3,12.59,-23.43,-23.49,0,*4F
1497978236.73,16146,26.38,74400.5,12.57,-23.53,-23.49,0,*43
1497978237.96,16147,26.31,74398.5,12.57,-23.39,-23.39,0,*49
1497978239.21,16148,26.31,74398.3,12.55,-23.53,-23.65,0,*41
1497978240.45,16149,26.31,74398.8,12.57,-23.09,-23.09,0,*47
1497978241.71,16150,26.31,74398.8,12.57,-23.09,-23.19,0,*4E
1497978242.92,16151,26.31,74396.0,12.55,-22.97,-22.97,0,*4C
1497978244.14,16152,26.31,74398.0,12.57,-22.87,-22.83,0,*49
1497978245.34,16153,26.31,74398.0,12.55,-22.83,-22.83,0,*4E
1497978246.54,16154,26.31,74398.3,12.55,-22.67,-22.67,0,*49
1497978247.75,16155,26.31,74396.3,12.55,-22.53,-22.57,0,*4C
1497978248.95,16156,26.31,74398.8,12.55,-22.67,-22.67,0,*4B
1497978250.19,16157,26.31,74398.0,12.57,-22.53,-22.57,0,*4C
1497978251.44,16158,26.31,74398.3,12.57,-22.73,-22.83,0,*48
1497978252.67,16159,26.31,74398.8,12.57,-22.87,-22.97,0,*47
1497978253.93,16160,26.38,74402.0,12.57,-22.97,-23.03,0,*40
1497978255.19,16161,26.31,74398.5,12.57,-22.73,-22.83,0,*42
1497978256.46,16162,26.31,74398.5,12.57,-22.73,-22.73,0,*4E
1497978257.66,16163,26.38,74400.5,12.59,-22.67,-22.67,0,*41
1497978258.89,16164,26.31,74396.3,12.57,-22.67,-22.83,0,*42
1497978260.12,16165,26.31,74398.8,12.57,-22.87,-22.83,0,*4D
1497978261.35,16166,26.31,74396.8,12.57,-22.87,-22.87,0,*4A
1497978262.61,16167,26.31,74396.0,12.57,-23.03,-22.97,0,*47
1497978263.84,16168,26.31,74396.3,12.57,-22.83,-22.87,0,*40
1497978265.12,16169,26.31,74396.3,12.57,-23.03,-23.03,0,*45
1497978266.38,16170,26.31,74398.5,12.57,-22.73,-22.87,0,*46
1497978267.58,16171,26.31,74396.3,12.55,-22.67,-22.83,0,*44
1497978268.83,16172,26.31,74396.0,12.57,-22.53,-22.73,0,*4D
1497978270.07,16173,26.31,74396.0,12.57,-22.83,-22.87,0,*4A
1497978271.34,16174,26.31,74396.3,12.57,-22.73,-22.73,0,*49
1497978272.59,16175,26.31,74396.5,12.57,-22.87,-23.03,0,*45
1497978273.86,16176,26.31,74396.0,12.57,-23.03,-23.09,0,*41
1497978275.09,16177,26.31,74396.8,12.57,-22.67,-22.87,0,*44
1497978276.29,16178,26.31,74396.0,12.55,-22.67,-22.87,0,*49
1497978277.48,16179,26.31,74398.0,12.55,-22.67,-22.87,0,*48
1497978278.77,16180,26.31,74396.3,12.57,-23.03,-23.19,0,*49
1497978280.02,16181,26.31,74396.8,12.55,-23.33,-23.53,0,*47
1497978281.26,16182,26.38,74398.8,12.55,-23.69,-23.85,0,*40
1497978282.51,16183,26.31,74396.0,12.55,-23.53,-23.69,0,*4A
1497978283.78,16184,26.31,74394.3,12.53,-23.23,-23.29,0,*48
1497978285.03,16185,26.38,74398.0,12.53,-23.13,-23.29,0,*4A
1497978286.25,16186,26.31,74398.5,12.53,-23.39,-23.59,0,*46
1497978287.49,16187,26.38,74396.5,12.51,-23.69,-23.99,0,*4C
1497978288.74,16188,26.38,74398.0,12.51,-23.69,-23.99,0,*43
1497978289.97,16189,26.31,74394.3,12.51,-23.75,-23.99,0,*4F
1497978291.18,16190,26.31,74396.5,12.51,-23.75,-24.05,0,*45
1497978292.43,16191,26.31,74396.3,12.51,-23.69,-23.99,0,*4B
1497978293.7,16192,26.31,74398.0,12.45,-23.49,-23.69,0,*40
1497978294.96,16193,26.38,74398.3,12.49,-23.43,-23.65,0,*4B
1497978296.25,16194,26.38,74400.0,12.45,-23.53,-23.85,0,*4F
1497978297.49,16195,26.38,74398.0,12.45,-23.39,-23.65,0,*4C
1497978298.77,16196,26.31,74396.5,12.45,-23.65,-23.95,0,*49
1497978300.04,16197,26.38,74398.3,12.45,-23.85,-24.11,0,*4D
1497978301.29,16198,26.38,74398.3,12.43,-23.85,-24.11,0,*44
1497978302.52,16199,26.38,74398.3,12.43,-23.53,-23.79,0,*47
1497978303.77,16200,26.31,74394.0,12.43,-23.65,-23.85,0,*42
1497978305.02,16201,26.38,74396.0,12.43,-23.53,-23.65,0,*48
1497978306.3,16202,26.38,74398.0,12.41,-23.53,-23.65,0,*49
1497978307.56,16203,26.38,74394.0,12.41,-23.29,-23.43,0,*41
1497978308.79,16204,26.38,74392.3,12.43,-23.03,-23.39,0,*41
1497978310.05,16205,26.38,74398.8,12.41,-23.19,-23.43,0,*44
1497978311.31,16206,26.38,74396.3,12.41,-23.23,-23.43,0,*4E
1497978312.58,16207,26.38,74396.3,12.41,-23.29,-23.43,0,*45
1497978313.83,16208,26.38,74392.3,12.39,-23.29,-23.49,0,*4F
1497978315.06,16209,26.38,74396.8,12.39,-23.23,-23.43,0,*4E
1497978316.29,16210,26.38,74398.0,12.39,-23.33,-23.59,0,*4C
1497978317.5,16211,26.31,74394.3,12.39,-23.13,-23.43,0,*44
1497978318.75,16212,26.31,74392.5,12.39,-23.33,-23.49,0,*4F
1497978319.99,16213,26.38,74396.0,12.39,-23.23,-23.43,0,*45
1497978321.19,16214,26.38,74394.3,12.39,-23.43,-23.59,0,*4F
1497978322.4,16215,26.38,74396.3,12.39,-23.43,-23.59,0,*4E
1497978323.63,16216,26.38,74394.5,12.37,-23.89,-24.05,0,*4B
1497978324.88,16217,26.31,74392.8,12.37,-24.11,-24.31,0,*4B
1497978326.16,16218,26.31,74392.3,12.37,-24.11,-24.25,0,*41
1497978327.45,16219,26.38,74392.3,12.37,-24.11,-24.25,0,*40
1497978328.68,16220,26.31,74394.0,12.35,-24.15,-24.31,0,*49
1497978329.93,16221,26.31,74394.8,12.35,-23.99,-24.11,0,*49
1497978331.18,16222,26.38,74396.8,12.33,-24.05,-24.15,0,*4A
1497978332.44,16223,26.38,74392.3,12.33,-24.05,-24.21,0,*4C
1497978333.7,16224,26.38,74394.0,12.35,-23.99,-24.15,0,*48
1497978334.93,16225,26.38,74394.3,12.33,-23.75,-23.75,0,*4C
1497978336.16,16226,26.38,74392.8,12.31,-23.53,-23.59,0,*47
1497978337.37,16227,26.38,74394.0,12.31,-23.43,-23.59,0,*47
1497978338.59,16228,26.38,74394.3,12.31,-23.53,-23.59,0,*49
1497978339.82,16229,26.38,74394.3,12.31,-23.43,-23.53,0,*43
1497978341.05,16230,26.38,74396.0,12.31,-23.59,-23.65,0,*45
1497978342.29,16231,26.38,74394.5,12.31,-23.69,-23.69,0,*4B
1497978343.54,16232,26.38,74394.5,12.29,-23.59,-23.65,0,*4E
1497978344.77,16233,26.38,74394.8,12.31,-23.33,-23.39,0,*43
1497978345.98,16234,26.38,74392.0,12.31,-23.39,-23.53,0,*42
1497978347.24,16235,26.31,74392.3,12.29,-23.43,-23.49,0,*4C
1497978348.49,16236,26.38,74394.3,12.29,-23.39,-23.49,0,*42
1497978349.74,16237,26.38,74394.5,12.29,-23.59,-23.65,0,*4B
1497978351.0,16238,26.38,74392.0,12.29,-23.49,-23.59,0,*4A
1497978352.25,16239,26.31,74390.5,12.29,-23.23,-23.43,0,*4C
1497978353.48,16240,26.38,74392.3,12.27,-23.23,-23.39,0,*41
1497978354.71,16241,26.38,74390.0,12.27,-23.29,-23.39,0,*4A
1497978355.94,16242,26.38,74392.8,12.27,-23.29,-23.39,0,*49
1497978357.18,16243,26.38,74394.8,12.27,-23.29,-23.43,0,*45
1497978358.39,16244,26.38,74392.3,12.27,-23.43,-23.59,0,*45
1497978359.62,16245,26.31,74390.3,12.27,-23.43,-23.65,0,*4B
1497978360.87,16246,26.38,74394.3,12.23,-23.65,-23.69,0,*44
1497978362.12,16247,26.31,74388.3,12.23,-23.49,-23.49,0,*49
1497978363.37,16248,26.38,74394.0,12.23,-23.49,-23.53,0,*4D
1497978364.6,16249,26.38,74394.8,12.23,-23.33,-23.43,0,*40
1497978365.84,16250,26.38,74390.0,12.27,-23.09,-23.23,0,*43
1497978367.09,16251,26.38,74394.3,12.23,-23.19,-23.49,0,*4B
1497978368.34,16252,26.38,74392.0,12.23,-23.49,-23.49,0,*4D
1497978369.59,16253,26.38,74394.3,12.23,-23.29,-23.33,0,*47
1497978370.84,16254,26.38,74394.8,12.23,-23.29,-23.29,0,*4B
1497978372.04,16255,26.38,74394.8,12.23,-23.13,-23.13,0,*4A
1497978373.29,16256,26.38,74392.0,12.23,-23.19,-23.29,0,*4A
1497978374.54,16257,26.38,74394.8,12.23,-23.19,-23.29,0,*4B
1497978375.79,16258,26.38,74394.0,12.23,-23.49,-23.53,0,*4C
1497978377.0,16259,26.38,74394.5,12.23,-23.43,-23.43,0,*46
1497978378.25,16260,26.38,74394.8,12.21,-23.39,-23.33,0,*44
1497978379.5,16261,26.38,74394.0,12.21,-23.39,-23.23,0,*44
1497978380.74,16262,26.38,74394.5,12.19,-23.75,-23.85,0,*48
1497978381.98,16263,26.38,74392.0,12.21,-23.69,-23.75,0,*40
1497978383.24,16264,26.38,74396.5,12.19,-23.99,-23.99,0,*41
1497978384.51,16265,26.38,74394.3,12.21,-23.99,-23.99,0,*4B
1497978385.74,16266,26.38,74392.5,12.17,-24.05,-24.05,0,*4D
1497978387.01,16267,26.38,74392.3,12.17,-23.95,-23.95,0,*4C
1497978388.22,16268,26.38,74390.5,12.15,-23.79,-23.79,0,*41
1497978389.47,16269,26.38,74388.0,12.17,-23.59,-23.53,0,*48
1497978390.7,16270,26.38,74398.3,12.15,-23.65,-23.59,0,*47
1497978391.93,16271,26.38,74392.5,12.15,-23.59,-23.49,0,*48
1497978393.18,16272,26.38,74392.8,12.17,-23.39,-23.23,0,*43
1497978394.43,16273,26.38,74390.0,12.15,-23.69,-23.49,0,*49
1497978395.64,16274,26.38,74394.0,12.15,-23.59,-23.43,0,*47
1497978396.87,16275,26.38,74390.3,12.15,-23.33,-23.13,0,*4F
1497978398.11,16276,26.38,74392.0,12.15,-23.13,-23.03,0,*4F
1497978399.39,16277,26.38,74392.0,12.13,-23.23,-23.23,0,*49
1497978400.66,16278,26.38,74392.8,12.13,-23.49,-23.33,0,*4B
1497978401.92,16279,26.38,74390.8,12.11,-23.23,-23.03,0,*47
1497978403.2,16280,26.38,74388.0,12.13,-23.23,-23.19,0,*48
1497978404.45,16281,26.38,74388.3,12.13,-23.19,-23.09,0,*41
1497978405.7,16282,26.38,74388.8,12.13,-22.87,-22.73,0,*48
1497978406.93,16283,26.38,74390.5,12.15,-22.97,-22.73,0,*4E
1497978408.16,16284,26.38,74388.8,12.15,-22.83,-22.73,0,*4C
1497978409.36,16285,26.38,74390.3,12.15,-22.97,-22.67,0,*4D
1497978410.57,16286,26.38,74390.0,12.15,-22.87,-22.63,0,*4B
1497978411.77,16287,26.38,74388.8,12.15,-22.87,-22.67,0,*4E
1497978412.98,16288,26.38,74388.5,12.15,-22.97,-22.83,0,*4A
1497978414.18,16289,26.38,74390.8,12.15,-22.87,-22.83,0,*4A
1497978415.43,16290,26.38,74390.0,12.13,-22.93,-22.73,0,*4E
1497978416.66,16291,26.38,74392.0,12.13,-22.67,-22.53,0,*46
1497978417.92,16292,26.38,74390.3,12.15,-22.31,-22.31,0,*44
1497978419.17,16293,26.38,74390.0,12.15,-22.21,-22.21,0,*45
1497978420.43,16294,26.38,74392.3,12.15,-22.21,-22.17,0,*47
1497978421.7,16295,26.38,74390.0,12.15,-22.47,-22.47,0,*43
1497978422.91,16296,26.38,74388.8,12.15,-22.53,-22.53,0,*40
1497978424.14,16297,26.38,74392.0,12.15,-22.73,-22.63,0,*40
1497978425.4,16298,26.38,74388.5,12.17,-22.93,-22.77,0,*46
1497978426.63,16299,26.38,74390.5,12.17,-23.09,-22.93,0,*4F
1497978427.83,16300,26.38,74390.3,12.15,-22.87,-22.87,0,*4E
1497978429.06,16301,26.38,74390.5,12.15,-22.73,-22.83,0,*40
1497978430.29,16302,26.38,74390.5,12.15,-23.03,-22.87,0,*41
1497978431.52,16303,26.38,74386.3,12.15,-23.19,-23.13,0,*47
1497978432.78,16304,26.38,74392.5,12.15,-23.49,-23.49,0,*4A
1497978434.06,16305,26.38,74394.0,12.13,-23.23,-23.19,0,*44
1497978435.34,16306,26.38,74388.8,12.13,-23.19,-23.03,0,*45
1497978436.57,16307,26.38,74388.0,12.13,-22.93,-22.93,0,*4F
1497978437.82,16308,26.38,74392.5,12.13,-22.87,-22.77,0,*4F
1497978439.08,16309,26.38,74392.8,12.13,-23.03,-22.93,0,*49
1497978440.28,16310,26.38,74394.0,12.11,-22.87,-22.87,0,*4B
1497978441.49,16311,26.38,74392.5,12.11,-22.57,-22.57,0,*4A
1497978442.7,16312,26.38,74394.5,12.11,-22.57,-22.53,0,*4D
1497978443.91,16313,26.38,74394.8,12.11,-22.67,-22.67,0,*48
1497978445.14,16314,26.38,74394.8,12.13,-22.53,-22.57,0,*49
1497978446.37,16315,26.38,74394.5,12.13,-22.53,-22.67,0,*4B
1497978447.6,16316,26.38,74394.3,12.13,-22.67,-22.67,0,*4F
1497978448.83,16317,26.38,74394.3,12.13,-22.57,-22.67,0,*4D
1497978450.06,16318,26.38,74392.3,12.13,-22.57,-22.67,0,*42
1497978451.27,16319,26.38,74392.8,12.11,-22.57,-22.57,0,*42
1497978452.5,16320,26.38,74392.0,12.13,-22.53,-22.41,0,*49
1497978453.7,16321,26.38,74394.3,12.11,-22.37,-22.41,0,*48
1497978454.93,16322,26.38,74390.3,12.13,-22.27,-22.27,0,*48
1497978456.16,16323,26.38,74392.8,12.13,-22.27,-22.27,0,*49
1497978457.41,16324,26.38,74394.0,12.13,-22.21,-22.27,0,*48
1497978458.62,16325,26.38,74392.5,12.11,-22.53,-22.67,0,*4A
1497978459.87,16326,26.38,74394.5,12.13,-22.57,-22.73,0,*4A
1497978461.13,16327,26.38,74392.8,12.13,-22.67,-22.77,0,*4C
1497978462.38,16328,26.38,74396.0,12.11,-22.73,-22.77,0,*44
1497978463.66,16329,26.38,74392.0,12.13,-22.73,-22.77,0,*47
1497978464.86,16330,26.38,74394.3,12.11,-22.67,-22.67,0,*49
1497978466.09,16331,26.38,74396.3,12.13,-22.57,-22.67,0,*49
1497978467.3,16332,26.38,74392.8,12.11,-22.87,-22.93,0,*4E
1497978468.55,16333,26.38,74388.5,12.13,-22.57,-22.73,0,*4E
1497978469.76,16334,26.38,74394.3,12.11,-22.57,-22.67,0,*4E
1497978470.96,16335,26.38,74392.3,12.11,-22.27,-22.41,0,*4C
1497978472.19,16336,26.38,74392.5,12.11,-22.21,-22.27,0,*49
1497978473.39,16337,26.38,74392.8,12.11,-22.07,-22.11,0,*49
1497978474.64,16338,26.38,74396.5,12.11,-22.21,-22.21,0,*41
1497978475.85,16339,26.38,74392.0,12.11,-22.27,-22.27,0,*40
1497978477.1,16340,26.38,74394.0,12.11,-22.21,-22.21,0,*4E
1497978478.38,16341,26.38,74392.5,12.13,-22.21,-22.21,0,*4D
1497978479.58,16342,26.38,74396.3,12.11,-22.37,-22.37,0,*4C
1497978480.79,16343,26.38,74392.3,12.11,-22.53,-22.57,0,*49
1497978482.0,16344,26.38,74394.8,12.11,-22.53,-22.57,0,*4E
1497978483.24,16345,26.38,74394.3,12.13,-22.53,-22.53,0,*49
1497978484.44,16346,26.38,74392.5,12.11,-22.41,-22.41,0,*48
1497978485.64,16347,26.38,74398.3,12.11,-22.27,-22.27,0,*49
1497978486.9,16348,26.38,74394.0,12.11,-22.21,-22.21,0,*46
1497978488.12,16349,26.38,74392.0,12.13,-22.41,-22.53,0,*46
1497978489.33,16350,26.38,74392.3,12.11,-22.53,-22.53,0,*4F
1497978490.54,16351,26.38,74394.5,12.11,-22.37,-22.37,0,*4E
1497978491.74,16352,26.38,74392.3,12.11,-22.41,-22.53,0,*4E
1497978492.99,16353,26.38,74394.3,12.13,-21.97,-22.07,0,*44
1497978494.27,16354,26.38,74394.0,12.13,-22.21,-22.21,0,*49